Regional Weather Roundup
Issued by NWS

Home | Current Version | Previous Version | Text Only | Print | Product List | Glossary On
Versions: 1 2 3 4 5 6 7 8 9 10 11 12 13 14 15 16 17 18 19 20 21 22 23 24 25 26 27 28 29 30 31 32 33 34 35 36 37 38 39 40 41 42 43 44 45
000
ASPQ40 PGUM 020412
RWRPQ
WEATHER ROUNDUP FOR THE MARIANAS AND MICRONESIA
NATIONAL WEATHER SERVICE TIYAN GU
200 PM CHST THU OCT 02 2014

GUZ001>004-020500-
MARIANA ISLANDS-

CITY           SKY/WX    TMP DP  RH WIND       PRES   REMARKS
GUAM AIRPORT   SUNNY     84  79  84 S12G22    29.65F HX  96
ANDERSEN AFB   PTSUNNY   81  79  94 S15G24    29.64F
ROTA AIRPORT   MOSUNNY   84  79  84 S16G24    29.63F HX  96
TINIAN AP      NOT AVBL
SAIPAN AP      MOSUNNY   84  79  84 S15G22    29.64F HX  96

$$

PMZ161-020500-
REPUBLIC OF PALAU-

CITY           SKY/WX    TMP DP  RH WIND       PRES   REMARKS
KOROR AP       CLOUDY    84  77  79 SW13G23   29.70F HX  94
KOROR WSO      CLOUDY    84  75  74 W12G32    29.70F HX  92

$$

PMZ171>174-020500-
FEDERATED STATES OF MICRONESIA-

CITY           SKY/WX    TMP DP  RH WIND       PRES   REMARKS
YAP AIRPORT    PTSUNNY   86  77  74 SW14      29.64F HX  97
CHUUK AP       PTSUNNY   88  82  84 VRB3      29.71F HX 108
POHNPEI AP     NOT AVBL
POHNPEI WSO    LGT RAIN  77  75  94 SW6       29.76
KOSRAE AP      NOT AVBL

$$

PMZ181-020500-
REPUBLIC OF THE MARSHALL ISLANDS-

CITY           SKY/WX    TMP DP  RH WIND       PRES   REMARKS
KWAJALEIN AP   HVY RAIN  79  75  89 N6        29.72S VSB 1/2
MAJURO AP      NOT AVBL
MAJURO WSO     LGT RAIN  77  75  94 VRB2      29.74R

$$




USA.gov is the U.S. government's official web portal to all federal, state and local government web resources and services.